Weather History for KBJI - February, 2013

Change the Weather History Date:

Monday, February 18, 2013

  Actual Average Record
Temperature  
Mean Temperature 14 °F -  
Max Temperature 27 °F 22 °F 48 °F (2002)
Min Temperature 1 °F 1 °F -39 °F (1967)
Degree Days  
Heating Degree Days 51    
Moisture  
Dew Point 11 °F    
Average Humidity 83    
Maximum Humidity 96    
Minimum Humidity 76    
Precipitation  
Precipitation 0.01 in - - ()
Sea Level Pressure  
Sea Level Pressure 29.63 in    
Wind  
Wind Speed 12 mph (NNW)    
Max Wind Speed 25 mph    
Max Gust Speed 32 mph    
Visibility 3 miles    
Events Snow    
Averages and records for this station are not official NWS values.
T = Trace of Precipitation, MM = Missing Value Source: NWS Daily Summary

Daily Weather History Graph

Daily Weather History Graph

Search for Another Location

Airport or City:

Trip Planner

Search our weather history database for the weather conditions in past years. The results will help you decide how hot, cold, wet, or windy it might be!

Date:

Astronomy

Feb. 18, 2013 Rise Set
Actual Time 7:19 AM CST 5:48 PM CST
Civil Twilight 6:48 AM CST 6:19 PM CST
Nautical Twilight 6:12 AM CST 6:55 PM CST
Astronomical Twilight 5:36 AM CST 7:31 PM CST
Moon 11:22 AM CST (2/18) 2:11 AM CST (2/18)
Length of Visible Light 11h 31m
Length of Day
10h 28m
First Quarter, 58% of the Moon is Illuminated
Feb 18
First Quarter
Feb 25
Full
Mar 4
Last Quarter
Mar 11
New
Mar 19
First Quarter

Hourly Weather History & Observations

Time (CST) Temp. Windchill Dew Point Humidity Pressure Visibility Wind Dir Wind Speed Gust Speed Precip Events Conditions
12:15 AM 27.3 °F 17.7 °F 22.1 °F 81% 29.51 in 10.0 mi South 10.4 mph - N/A   Overcast
12:35 AM 27.3 °F 18.4 °F 22.1 °F 81% 29.50 in 10.0 mi South 9.2 mph - N/A   Overcast
12:55 AM 27.1 °F 18.2 °F 22.1 °F 81% 29.49 in 10.0 mi South 9.2 mph - N/A   Overcast
1:15 AM 27.1 °F 17.5 °F 22.1 °F 81% 29.48 in 10.0 mi South 10.4 mph - N/A   Overcast
1:35 AM 27.1 °F 18.9 °F 22.5 °F 83% 29.48 in 10.0 mi South 8.1 mph - N/A   Overcast
1:55 AM 27.1 °F 20.7 °F 22.6 °F 83% 29.48 in 10.0 mi SSE 5.8 mph - N/A   Overcast
2:15 AM 26.2 °F 19.6 °F 22.3 °F 85% 29.48 in 10.0 mi SE 5.8 mph - N/A   Overcast
2:35 AM 25.7 °F 20.1 °F 21.9 °F 86% 29.48 in 10.0 mi SE 4.6 mph - N/A   Overcast
2:55 AM 25.7 °F 19.0 °F 21.9 °F 86% 29.46 in 10.0 mi SE 5.8 mph - N/A   Overcast
3:15 AM 25.5 °F 19.9 °F 21.7 °F 86% 29.46 in 10.0 mi ESE 4.6 mph - N/A   Overcast
3:35 AM 25.2 °F 18.3 °F 21.4 °F 86% 29.45 in 10.0 mi ESE 5.8 mph - N/A   Overcast
3:55 AM 25.0 °F 18.1 °F 21.6 °F 87% 29.46 in 3.0 mi SE 5.8 mph - N/A Snow Light Snow
4:15 AM 24.8 °F 19.1 °F 21.9 °F 89% 29.46 in 5.0 mi SE 4.6 mph - N/A Snow Light Snow
4:35 AM 24.6 °F 18.8 °F 22.1 °F 90% 29.45 in 2.5 mi ESE 4.6 mph - N/A Snow Light Snow
4:55 AM 24.4 °F 18.6 °F 22.5 °F 92% 29.46 in 1.2 mi SE 4.6 mph - N/A Snow Light Snow
5:15 AM 24.3 °F 18.4 °F 22.8 °F 94% 29.46 in 1.0 mi SE 4.6 mph - N/A Snow Light Snow
5:35 AM 23.9 °F 19.5 °F 22.8 °F 96% 29.46 in 1.2 mi SE 3.5 mph - N/A Snow Light Snow
5:55 AM 23.9 °F 19.5 °F 22.6 °F 95% 29.46 in 2.5 mi SE 3.5 mph - N/A Snow Light Snow
6:15 AM 23.9 °F 19.5 °F 22.6 °F 95% 29.46 in 5.0 mi SSE 3.5 mph - N/A Snow Light Snow
6:35 AM 23.9 °F - 22.6 °F 95% 29.46 in 4.0 mi Calm Calm - N/A Snow Light Snow
6:55 AM 23.7 °F - 22.3 °F 94% 29.46 in 4.0 mi Calm Calm - N/A Snow Light Snow
7:35 AM 23.7 °F - 22.1 °F 94% 29.46 in 3.0 mi Calm Calm - N/A Snow Light Snow
8:15 AM 23.7 °F - 22.6 °F 96% 29.46 in 0.8 mi Calm Calm - 0.01 in Snow Light Snow
8:55 AM 25.0 °F 14.8 °F 23.4 °F 94% 29.47 in 1.2 mi WNW 10.4 mph - 0.01 in Snow Light Snow
9:15 AM 25.2 °F 10.1 °F 22.8 °F 91% 29.48 in 1.2 mi NNW 23.0 mph - N/A Snow Light Snow
9:35 AM 23.5 °F 7.3 °F 20.3 °F 87% 29.50 in 0.8 mi NW 25.3 mph 32.2 mph N/A Snow Light Snow
9:55 AM 22.3 °F 8.7 °F 18.5 °F 85% 29.52 in 2.0 mi NNW 16.1 mph 25.3 mph N/A Snow Light Snow
10:15 AM 21.2 °F 6.0 °F 17.4 °F 85% 29.53 in 1.5 mi NW 19.6 mph 25.3 mph N/A Snow Light Snow
10:35 AM 20.3 °F 5.2 °F 16.2 °F 84% 29.55 in 1.0 mi NNW 18.4 mph 29.9 mph N/A Snow Light Snow
10:55 AM 20.1 °F 5.0 °F 15.8 °F 83% 29.56 in 2.0 mi NW 18.4 mph 24.2 mph N/A Snow Light Snow
11:15 AM 18.3 °F 1.8 °F 14.2 °F 84% 29.57 in 1.2 mi NW 20.7 mph 27.6 mph N/A Snow Light Snow
11:35 AM 16.9 °F -0.1 °F 12.7 °F 84% 29.59 in 2.0 mi NW 20.7 mph 24.2 mph N/A Snow Light Snow
11:55 AM 16.3 °F -1.6 °F 11.5 °F 81% 29.60 in 1.5 mi NW 23.0 mph - N/A Snow Light Snow
12:15 PM 15.4 °F -2.4 °F 10.2 °F 80% 29.61 in 1.8 mi NNW 21.9 mph 27.6 mph N/A Snow Light Snow
12:55 PM 14.0 °F -4.3 °F 8.2 °F 78% 29.64 in 1.5 mi NW 21.9 mph 26.5 mph N/A Snow Light Snow
1:15 PM 12.9 °F -6.1 °F 7.7 °F 80% 29.65 in 1.5 mi NW 23.0 mph 27.6 mph N/A Snow Light Snow
1:35 PM 12.6 °F -6.6 °F 7.0 °F 78% 29.66 in 1.5 mi NW 23.0 mph - N/A Snow Light Snow
1:55 PM 11.8 °F -4.8 °F 6.6 °F 80% 29.66 in 1.5 mi NW 16.1 mph - N/A Snow Light Snow
2:15 PM 11.7 °F -7.8 °F 6.6 °F 80% 29.67 in 1.2 mi NW 23.0 mph - N/A Snow Light Snow
2:35 PM 11.3 °F -6.5 °F 5.5 °F 78% 29.68 in 2.0 mi NNW 18.4 mph 27.6 mph N/A Snow Light Snow
2:55 PM 10.9 °F -8.3 °F 4.8 °F 76% 29.69 in 1.2 mi NW 21.9 mph 27.6 mph N/A Snow Light Snow
3:15 PM 10.4 °F -9.1 °F 4.8 °F 78% 29.70 in 1.5 mi NW 21.9 mph 27.6 mph N/A Snow Light Snow
3:35 PM 10.4 °F -7.7 °F 4.6 °F 78% 29.71 in 1.8 mi NW 18.4 mph - N/A Snow Light Snow
3:55 PM 9.5 °F -10.7 °F 3.9 °F 78% 29.72 in 2.0 mi NW 23.0 mph 27.6 mph N/A Snow Light Snow
4:15 PM 9.1 °F -8.8 °F 3.4 °F 77% 29.74 in 4.0 mi NNW 17.3 mph - N/A Snow Light Snow
4:35 PM 8.6 °F -10.5 °F 2.8 °F 77% 29.74 in 1.2 mi NNW 19.6 mph 28.8 mph N/A Snow Light Snow
4:55 PM 8.2 °F -11.0 °F 2.3 °F 77% 29.76 in 1.5 mi NNW 19.6 mph 26.5 mph N/A Snow Light Snow
5:15 PM 7.9 °F -9.3 °F 2.1 °F 77% 29.77 in 2.5 mi NW 15.0 mph 25.3 mph N/A Snow Light Snow
5:35 PM 7.2 °F -11.9 °F 2.1 °F 80% 29.78 in 3.0 mi NW 18.4 mph 24.2 mph N/A Snow Light Snow
5:55 PM 6.4 °F -13.3 °F 1.6 °F 80% 29.79 in 2.5 mi NW 19.6 mph 26.5 mph N/A Snow Light Snow
6:15 PM 5.9 °F -13.0 °F 0.9 °F 80% 29.80 in 2.0 mi NNW 17.3 mph 25.3 mph N/A Snow Light Snow
6:35 PM 5.7 °F -12.0 °F 0.5 °F 79% 29.81 in 4.0 mi NNW 15.0 mph - N/A Snow Light Snow
6:55 PM 5.5 °F -11.6 °F 0.5 °F 80% 29.82 in 2.0 mi NNW 13.8 mph 24.2 mph N/A Snow Light Snow
7:15 PM 5.0 °F -14.2 °F 0.1 °F 80% 29.83 in 2.0 mi NNW 17.3 mph - N/A Snow Light Snow
7:35 PM 5.0 °F -12.3 °F 0.1 °F 80% 29.83 in 1.8 mi NNW 13.8 mph 24.2 mph N/A Snow Light Snow
7:55 PM 4.8 °F -12.5 °F -0.9 °F 77% 29.84 in 2.0 mi NNW 13.8 mph 25.3 mph N/A Snow Light Snow
8:15 PM 4.6 °F -14.0 °F -1.3 °F 76% 29.84 in 1.5 mi NNW 16.1 mph 23.0 mph N/A Snow Light Snow
8:35 PM 4.1 °F -12.7 °F -1.7 °F 77% 29.85 in 2.0 mi NNW 12.7 mph 23.0 mph N/A Snow Light Snow
9:15 PM 3.9 °F -16.6 °F -2.0 °F 76% 29.86 in 3.0 mi North 19.6 mph 28.8 mph N/A Snow Light Snow
9:35 PM 3.2 °F -15.9 °F -2.9 °F 76% 29.87 in 2.5 mi NNW 16.1 mph 23.0 mph N/A Snow Light Snow
9:55 PM 3.0 °F -14.8 °F -2.9 °F 76% 29.87 in 3.0 mi NNW 13.8 mph 24.2 mph N/A Snow Light Snow
10:15 PM 2.8 °F -17.5 °F -2.9 °F 77% 29.89 in 2.0 mi NNW 18.4 mph 24.2 mph N/A Snow Light Snow
10:55 PM 2.3 °F -16.4 °F -3.3 °F 77% 29.90 in 2.5 mi NNW 15.0 mph 21.9 mph N/A Snow Light Snow
11:15 PM 1.8 °F -17.8 °F -3.6 °F 78% 29.91 in 1.2 mi North 16.1 mph 24.2 mph N/A Snow Light Snow
11:35 PM 1.4 °F -16.1 °F -4.2 °F 77% 29.92 in 1.2 mi NNW 12.7 mph 28.8 mph N/A Snow Light Snow
11:55 PM 1.0 °F -18.0 °F -4.5 °F 77% 29.93 in 1.0 mi North 15.0 mph 27.6 mph N/A Snow Light Snow